Location: Caltech
(34.1382°N, 118.1253°W)
Time: 10:15:12
(UTC-07:00)

Cosmos 1980 Rocket - Visible Passes

Search period start: 24 May 2015 00:00
Search period end: 03 June 2015 00:00
Orbit: 828 x 852 km, 71.0° (Epoch: 24 May)

Date Brightness Start Highest point End Pass type
(mag) Time Alt. Az. Time Alt. Az. Time Alt. Az.
24 May 5.5 05:03:37 10° NNE 05:06:39 15° NE 05:09:56 10° E visible
24 May 5.0 21:34:32 10° WSW 21:38:35 19° NW 21:42:28 10° NNW visible
25 May 5.6 04:48:12 10° NNE 04:50:57 14° NE 04:53:59 10° E visible
25 May 5.0 21:18:40 10° WSW 21:22:54 20° WNW 21:26:58 10° N visible
26 May 5.7 04:32:50 10° NNE 04:35:15 13° NE 04:37:58 10° E visible
26 May 5.0 21:02:51 10° WSW 21:07:13 22° WNW 21:11:27 10° N visible
27 May 5.7 04:17:31 10° NNE 04:19:33 12° NE 04:21:54 10° ENE visible
27 May 5.0 20:47:02 10° WSW 20:51:32 23° WNW 20:55:56 10° N visible
28 May 5.7 04:02:17 10° NE 04:03:51 11° NE 04:05:44 10° ENE visible
28 May 4.9 20:31:13 10° WSW 20:35:52 25° WNW 20:40:24 10° N visible
29 May 5.7 03:47:17 10° NE 03:48:08 10° NE 03:49:22 10° ENE visible
30 May 2.5 05:11:51 10° NNW 05:17:32 78° ENE 05:23:10 10° SSE visible
31 May 2.5 04:56:14 10° NNW 05:01:54 73° ENE 05:07:31 10° SSE visible
01 Jun 2.6 04:40:37 10° NNW 04:46:16 68° ENE 04:51:52 10° SSE visible
02 Jun 2.7 04:25:01 10° NNW 04:30:38 63° ENE 04:36:12 10° SSE visible
